Location: Leipzig
(51.3397°N, 12.3731°E)
Time: 20:17:06
(UTC+01:00)

ISS - Pass Details

Date: 22 October 2025
Orbit: 414 x 421 km, 51.6° (Epoch: 07 November)

Event Time Altitude Azimuth Distance (km) Brightness Sun altitude
Exits shadow 05:36:01 45° 157° (SSE) 585 -3.0 -21.0°
Maximum altitude 05:36:03 45° 155° (SSE) 585 -3.0 -21.0°
Drops below altitude 10° 05:39:18 10° 82° (E) 1,507 0.3 -20.5°
Sets 05:41:27 0° 76° (ENE) 2,375 1.6 -20.1°
